TimePDT,TemperatureF,Dew PointF,Humidity,Sea Level PressureIn,VisibilityMPH,Wind Direction,Wind SpeedMPH,Gust SpeedMPH,PrecipitationIn,Events,Conditions,WindDirDegrees,DateUTC
12:56 AM,50.0,30.9,48,30.09,10.0,NNW,3.5,-,N/A,,Clear,340,2013-06-14 07:56:00
1:56 AM,48.9,30.9,50,30.10,10.0,NNW,3.5,-,N/A,,Clear,340,2013-06-14 08:56:00
2:56 AM,44.1,30.0,58,30.11,10.0,SSE,3.5,-,N/A,,Clear,160,2013-06-14 09:56:00
3:56 AM,42.1,30.0,62,30.11,10.0,South,3.5,-,N/A,,Unknown,170,2013-06-14 10:56:00
4:56 AM,37.0,28.0,70,30.14,10.0,Calm,Calm,-,N/A,,Clear,0,2013-06-14 11:56:00
5:56 AM,39.0,27.0,62,30.16,10.0,NW,3.5,-,N/A,,Clear,310,2013-06-14 12:56:00
6:56 AM,44.1,28.9,55,30.16,10.0,Calm,Calm,-,N/A,,Clear,0,2013-06-14 13:56:00
7:56 AM,50.0,28.9,44,30.15,10.0,ENE,6.9,-,N/A,,Clear,60,2013-06-14 14:56:00
8:56 AM,52.0,26.1,37,30.15,10.0,Calm,Calm,-,N/A,,Clear,0,2013-06-14 15:56:00
9:56 AM,57.0,21.9,26,30.14,10.0,NNW,5.8,-,N/A,,Clear,340,2013-06-14 16:56:00
10:56 AM,59.0,17.1,20,30.12,10.0,Calm,Calm,-,N/A,,Clear,0,2013-06-14 17:56:00
11:56 AM,61.0,16.0,17,30.09,10.0,Variable,3.5,-,N/A,,Clear,0,2013-06-14 18:56:00
12:56 PM,66.9,10.0,11,30.07,10.0,Variable,3.5,-,N/A,,Clear,0,2013-06-14 19:56:00
1:56 PM,68.0,6.1,9,30.04,10.0,Calm,Calm,-,N/A,,Clear,0,2013-06-14 20:56:00
2:56 PM,72.0,5.0,7,30.02,10.0,Calm,Calm,-,N/A,,Clear,0,2013-06-14 21:56:00
3:56 PM,73.0,5.0,7,30.00,10.0,Calm,Calm,-,N/A,,Clear,0,2013-06-14 22:56:00
4:56 PM,73.9,3.0,6,29.99,10.0,Variable,4.6,-,N/A,,Clear,0,2013-06-14 23:56:00
5:56 PM,72.0,5.0,7,29.97,10.0,Calm,Calm,-,N/A,,Clear,0,2013-06-15 00:56:00
6:56 PM,72.0,7.0,8,29.95,10.0,ENE,5.8,-,N/A,,Clear,70,2013-06-15 01:56:00
7:56 PM,70.0,8.1,9,29.94,10.0,NE,8.1,-,N/A,,Clear,40,2013-06-15 02:56:00
8:56 PM,64.9,12.0,13,29.95,10.0,East,5.8,-,N/A,,Clear,100,2013-06-15 03:56:00
9:56 PM,64.0,10.9,13,29.95,10.0,NE,6.9,-,N/A,,Clear,50,2013-06-15 04:56:00
10:56 PM,62.1,17.1,18,29.95,10.0,NE,12.7,19.6,N/A,,Clear,40,2013-06-15 05:56:00
11:56 PM,60.1,19.9,21,29.95,10.0,NE,13.8,-,N/A,,Clear,40,2013-06-15 06:56:00